Date,TemperatureHighF,TemperatureAvgF,TemperatureLowF,DewpointHighF,DewpointAvgF,DewpointLowF,HumidityHigh,HumidityAvg,HumidityLow,PressureMaxIn,PressureMinIn,WindSpeedMaxMPH,WindSpeedAvgMPH,GustSpeedMaxMPH,PrecipitationSumIn
2013-3-1,55,48,42,45,38,34,82,69,56,30.15,30.02,16,7,19,0.00
2013-3-2,48,43,39,36,32,29,83,68,53,30.19,30.08,24,14,28,0.00
2013-3-3,51,44,36,38,31,27,80,62,45,30.22,30.12,19,10,24,0.00
2013-3-4,64,53,34,60,46,34,98,78,49,30.23,30.04,13,3,19,0.00
2013-3-5,71,63,50,63,58,43,96,83,66,30.14,29.96,22,6,29,0.00
2013-3-6,58,50,44,45,36,30,82,60,42,30.28,30.14,26,14,27,0.00
2013-3-7,60,49,37,50,40,32,92,73,48,30.35,30.23,10,3,15,0.00
2013-3-8,71,55,41,53,45,37,96,71,42,30.32,30.20,4,1,9,0.00
2013-3-9,67,58,46,58,52,46,98,82,63,30.24,30.09,12,3,19,0.00
2013-3-10,71,64,61,63,59,54,95,84,76,30.13,30.00,20,6,23,0.00
2013-3-11,71,61,50,66,59,46,99,93,85,29.99,29.83,19,8,24,0.77
2013-3-12,64,53,43,46,42,38,90,69,45,30.19,29.96,19,11,25,0.00
2013-3-13,64,55,45,46,39,28,90,58,30,30.34,30.19,21,8,26,0.00
2013-3-14,63,52,41,45,35,27,92,54,30,30.43,30.29,15,7,19,0.00
2013-3-15,69,55,41,54,48,40,96,78,46,30.33,30.17,10,1,14,0.00
2013-3-16,74,64,55,62,59,54,97,84,61,30.17,30.03,7,1,16,0.00
2013-3-17,72,64,56,67,62,56,99,94,78,30.05,29.95,8,2,13,0.01
2013-3-18,77,69,64,71,67,63,98,92,81,29.96,29.82,10,3,18,0.00
2013-3-19,78,67,60,69,60,46,98,80,54,30.05,29.90,11,2,15,0.00
2013-3-20,65,60,48,45,40,36,76,48,39,30.09,29.97,18,6,19,0.00
2013-3-21,66,54,46,47,37,29,85,55,27,30.09,29.92,15,5,16,0.00
2013-3-22,66,59,50,55,46,35,87,65,40,30.00,29.91,17,4,24,0.00
2013-3-23,70,66,62,68,62,48,99,89,56,29.91,29.62,14,3,43,0.67
2013-3-24,78,70,54,71,63,39,100,81,50,29.91,29.58,29,8,32,0.05
2013-3-25,59,51,43,42,34,29,78,56,35,30.22,29.93,29,16,32,0.00
2013-3-26,55,46,39,34,31,27,72,57,41,30.37,30.23,22,12,28,0.00
2013-3-27,59,48,36,46,36,29,92,65,42,30.44,30.29,10,3,16,0.00
2013-3-28,67,53,40,47,41,33,95,68,36,30.37,30.27,6,1,13,0.00
2013-3-29,72,57,44,55,48,42,97,75,35,30.36,30.24,7,1,13,0.00
2013-3-30,76,62,50,63,57,49,99,85,51,30.24,30.08,7,1,13,0.00
2013-3-31,77,69,60,67,65,59,98,88,65,30.09,29.92,8,2,12,0.01